BEIDOU-3 M11 (C25)

Last updated on Wed Sep 17 2025 00:03:25 GMT+0000 (Coordinated Universal Time)

1 43603U 18067B 25258.65727728 -.00000024 00000+0 00000+0 0 9999 2 43603 54.1857 190.3152 0004770 18.3829 341.6253 1.86227093 48035
UTC large
Height (km)
Speed (km/s)
/
Latitude / Longitude
Inclination (degrees)
Orbital Period (minutes)
Azimuth
Elevation
Range (km)
Doppler Factor

Next 0 passes for location: London (51.5072 / 0.1276)

Sorry there are no passes over London.